Location: Chircca
(13.7944°S, 72.0608°W)
Time: 06:16:40
(UTC+00:00)

Maqsat-H - Pass Details

Date: 14 July 2020
Orbit: 581 x 26391 km, 7.7° (Epoch: 14 August)

Event Time Altitude Azimuth Distance (km) Brightness Sun altitude
Exits shadow 10:02:05 13° 280° (W) 4,880 5.6 -16.9°
Maximum altitude 10:11:14 50° 352° (N) 1,202 3.0 -14.8°
Drops below altitude 10° 10:15:02 10° 70° (ENE) 2,030 5.7 -14.0°
Sets 10:16:42 0° 76° (ENE) 2,800 6.9 -13.6°
